SINOD-D 3

Last updated on Sun Jun 21 2026 00:03:50 GMT+0000 (Coordinated Universal Time)

1 40977U 15058P 26171.45403242 .00002342 00000+0 20489-3 0 9993 2 40977 64.7724 265.6178 0119447 56.8356 304.4148 14.94031938115242
UTC large
Height (km)
Speed (km/s)
/
Latitude / Longitude
Inclination (degrees)
Orbital Period (minutes)
Azimuth
Elevation
Range (km)
Doppler Factor

Next 0 passes for location: London (51.5072 / 0.1276)

No passes found over London.
SINOD-D 3